Location: Hains Lake
(37.8540°N, 99.8578°W)
Time: 00:12:10
(UTC+00:00)

ISS - Pass Details

Date: 08 March 2021
Orbit: 418 x 422 km, 51.6° (Epoch: 11 April)

Event Time Altitude Azimuth Distance (km) Brightness Sun altitude
Exits shadow 10:55:03 11° 10° (N) 1,433 -0.8 -25.4°
Maximum altitude 10:55:24 11° 16° (NNE) 1,426 -0.7 -25.4°
Drops below altitude 10° 10:56:30 10° 35° (NE) 1,498 -0.3 -25.1°
Sets 10:59:55 0° 73° (ENE) 2,360 1.5 -24.5°
